Regional Weather Roundup
Issued by NWS Northern Indiana

Home | Current Version | Previous Version | Graphics & Text | Print | Product List | Glossary On
Versions: 1 2 3 4 5 6 7 8 9 10 11 12 13 14 15 16 17 18 19 20 21 22 23 24 25 26 27 28 29 30 31 32 33 34 35 36 37 38 39 40 41 42 43 44 45 46 47 48 49 50
230
ASUS43 KIWX 292200
RWRIWX

KIWX WEATHER ROUNDUP
NATIONAL WEATHER SERVICE NORTHERN INDIANA
600 PM EDT FRI APR 29 2016

NOTE: "FAIR" INDICATES FEW OR NO CLOUDS BELOW 12,000 FEET WITH NO
SIGNIFICANT WEATHER AND/OR OBSTRUCTIONS TO VISIBILITY.

* THESE STATIONS ARE NOT UNDER NWS QUALITY CONTROL. THEY ALSO MAY NOT
  REPORT WEATHER SUCH AS PRECIPITATION OR FOG.

INZ001>027-292300-
NORTHERN INDIANA

CITY           SKY/WX    TMP DP  RH WIND       PRES   REMARKS
GARY*          CLOUDY    46  45  93 N7        30.12F
SOUTH BEND     CLOUDY    47  44  90 NW10      30.11R
ELKHART*       CLOUDY    52  46  82 CALM      30.10R
GOSHEN         CLOUDY    52  44  74 E5        30.09S
ANGOLA*        CLOUDY    54  43  66 CALM      30.08S
FORT WAYNE     CLOUDY    54  45  71 CALM      30.09R

$$
INZ028>050-292300-
CENTRAL INDIANA

CITY           SKY/WX    TMP DP  RH WIND       PRES   REMARKS
LAFAYETTE      CLOUDY    57  47  69 NW6       30.06F
KOKOMO*        CLOUDY    59  45  58 NW7       30.07R
MUNCIE*        CLOUDY    62  48  60 N7        30.05S
INDIANAPOLIS   CLOUDY    63  46  54 NW5       30.02F

$$
MIZ043>046-050>051-056>058-064>065-071>073-077>080-292300-
SOUTHWEST LOWER MICHIGAN

CITY           SKY/WX    TMP DP  RH WIND       PRES   REMARKS
BATTLE CREEK   CLOUDY    52  40  63 N5        30.10R
BENTON HARBOR  CLOUDY    48  41  76 NW5       30.12R
COLDWATER*     CLOUDY    53  42  66 N5        30.09R
HILLSDALE*     CLOUDY    53  40  62 E5        30.08R
HOLLAND        CLOUDY    52  40  63 E5        30.11R
GRAND RAPIDS   CLOUDY    52  40  63 SE8       30.12R
KALAMAZOO      CLOUDY    53  40  61 NE5       30.10R
STURGIS*       CLOUDY    52  43  73 SW7       30.09R
THREE RIVERS*  CLOUDY    53  43  70 CALM      30.10R

$$
OHZ001>008-015>018-024>025-292300-
NORTHWEST OHIO

CITY           SKY/WX    TMP DP  RH WIND       PRES   REMARKS
DEFIANCE       CLOUDY    57  41  55 CALM      30.09R
FINDLAY        CLOUDY    53  41  63 E8        30.08R
TOLEDO EXPRESS CLOUDY    51  39  63 E9        30.09R
TOLEDO METCALF CLOUDY    49  39  68 E8        30.12R
LIMA           CLOUDY    52  46  80 N7        30.08R

$$
AND FOR LAKE MICHIGAN COASTAL AND OPEN LAKE BUOY OBSERVATIONS

STATION/POSITION TEMP    WIND        PRES    VSBY  WAVE
                 AIR SEA DIR/SP/G                  HT/PER
                 (F)     (DEG/KT/KT) (MB)    (MI)  (FT/S)
CALUMET HARBOR    43     340/ 13/ 15 1019.2S
MICHIGAN CITY     42     300/  8/ 10   N/A
BURNS HARBOR      42      10/ 12/ 14 1020.0F
SOUTH LAKE BUOY   40 40  360/ 10/ 12 1020.0          1/ 3
4 MI NW BRIDGMAN  43 46                N/A           2/ 3

$$
&&




USA.gov is the U.S. government's official web portal to all federal, state and local government web resources and services.